This is the latest recevied weather packets stored in our database for station/object N2ZVN. If no packets are shown the sender has not sent any weather packets the latest 10 day(s).
| Time | Temp. | Humidity | Pressure | Rain* | Wind** | Luminosity | Snow |
|---|---|---|---|---|---|---|---|
| 1777402775 | 20° C | 53% | 1012.2 hPa | 0 mm | - | 218 W/m² | - |
| 1777402472 | 20.56° C | 51% | 1012.3 hPa | 0 mm | - | 667 W/m² | - |
| 1777402170 | 20.56° C | 52% | 1012.3 hPa | 0 mm | - | 789 W/m² | - |
| 1777401864 | 20° C | 53% | 1012.4 hPa | 0 mm | - | 560 W/m² | - |
| 1777401564 | 19.44° C | 53% | 1012.5 hPa | 0 mm | - | 628 W/m² | - |
| 1777401260 | 20° C | 53% | 1012.4 hPa | 0 mm | - | 419 W/m² | - |
| 1777400956 | 20° C | 51% | 1012.2 hPa | 0 mm | - | 573 W/m² | - |
| 1777400652 | 20° C | 51% | 1012.3 hPa | 0 mm | - | 443 W/m² | - |
| 1777400350 | 20° C | 51% | 1012.3 hPa | 0 mm | - | 595 W/m² | - |
| 1777400045 | 19.44° C | 53% | 1012.2 hPa | 0 mm | - | 451 W/m² | - |
| 1777399742 | 18.89° C | 53% | 1012 hPa | 0 mm | - | 357 W/m² | - |
| 1777399439 | 19.44° C | 51% | 1012.2 hPa | 0 mm | - | 311 W/m² | - |
| 1777399137 | 18.89° C | 53% | 1012.3 hPa | 0 mm | - | 995 W/m² | - |
| 1777398834 | 18.89° C | 54% | 1012.4 hPa | 0 mm | - | 347 W/m² | - |
| 1777398531 | 18.89° C | 52% | 1012.3 hPa | 0 mm | - | 349 W/m² | - |
| 1777398227 | 18.89° C | 53% | 1012.3 hPa | 0 mm | - | 397 W/m² | - |
| 1777397924 | 18.89° C | 52% | 1011.9 hPa | 0 mm | - | 361 W/m² | - |
| 1777397620 | 18.33° C | 54% | 1012.1 hPa | 0 mm | - | 350 W/m² | - |
| 1777397316 | 17.78° C | 53% | 1012.1 hPa | 0 mm | - | 258 W/m² | - |
| 1777397013 | 17.78° C | 53% | 1012.2 hPa | 0 mm | - | 141 W/m² | - |
| 1777396710 | 17.78° C | 54% | 1012.2 hPa | 0 mm | - | 163 W/m² | - |
| 1777396406 | 17.78° C | 52% | 1012.2 hPa | 0 mm | - | 169 W/m² | - |
| 1777396103 | 17.78° C | 52% | 1012.3 hPa | 0 mm | - | 300 W/m² | - |
| 1777395799 | 17.78° C | 53% | 1012.2 hPa | 0 mm | - | 520 W/m² | - |
| 1777395494 | 17.78° C | 52% | 1012.3 hPa | 0 mm | - | 364 W/m² | - |
* Rain latest hour (hover to see other rain measurements)
** Current wind speed in m/s (hover to see current wind gust speed)